Auckland, New Zealand

10:19 PM NZDT on February 18, 2018 (GMT +1300)
Auckland International

Weather History for NZAA - January, 2014

Change the Weather History Date:

Monday, January 20, 2014

  Actual Average Record
Temperature  
Mean Temperature 66 °F -  
Max Temperature 71 °F 72 °F 82 °F (1999)
Min Temperature 62 °F 60 °F 50 °F (2005)
Cooling Degree Days 2    
Growing Degree Days 16 (Base 50)    
Moisture  
Dew Point 60 °F    
Average Humidity 81    
Maximum Humidity 94    
Minimum Humidity 60    
Precipitation  
Precipitation 0.00 in - - ()
Sea Level Pressure  
Sea Level Pressure 29.73 in    
Wind  
Wind Speed 6 mph ()    
Max Wind Speed 24 mph    
Max Gust Speed 37 mph    
Visibility 6.2 miles    
Events Rain    
Averages and records for this station are not official NWS values.
T = Trace of Precipitation, MM = Missing Value Source: Averaged Metar Reports

Daily Weather History Graph

Daily Weather History Graph

Search for Another Location

Airport or City:

Trip Planner

Search our weather history database for the weather conditions in past years. The results will help you decide how hot, cold, wet, or windy it might be!

Date:

Astronomy

Jan. 20, 2014 Rise Set
Actual Time 6:22 AM NZDT 8:40 PM NZDT
Civil Twilight 5:52 AM NZDT 9:09 PM NZDT
Nautical Twilight 5:16 AM NZDT 9:46 PM NZDT
Astronomical Twilight 4:36 AM NZDT 10:25 PM NZDT
Moon 10:31 PM NZDT (1/20) 9:49 AM NZDT (1/20)
Length of Visible Light 15h 17m
Length of Day
14h 18m
Waning Gibbous, 88% of the Moon is Illuminated
Jan 20
Waning Gibbous
Jan 24
Last Quarter
Jan 31
New
Feb 7
First Quarter
Feb 15
Full

Hourly Weather History & Observations

Time (NZDT) Temp. Dew Point Humidity Pressure Visibility Wind Dir Wind Speed Gust Speed Precip Events Conditions
12:00 AM 62.6 °F 57.2 °F 82% 29.95 in 6.2 mi SSE 3.5 mph - N/A   Mostly Cloudy
12:30 AM 64.4 °F 57.2 °F 77% 29.92 in 6.2 mi SSE 2.3 mph - N/A   Overcast
1:00 AM 64.4 °F 57.2 °F 77% 29.92 in 6.2 mi SSE 4.6 mph - N/A   Overcast
1:30 AM 64.4 °F 57.2 °F 77% 29.89 in 6.2 mi SSE 4.6 mph - N/A   Mostly Cloudy
2:00 AM 64.4 °F 59.0 °F 83% 29.89 in 6.2 mi SSE 4.6 mph - N/A   Overcast
2:30 AM 64.4 °F 57.2 °F 77% 29.89 in 6.2 mi SE 3.5 mph - N/A   Overcast
3:00 AM 64.4 °F 57.2 °F 77% 29.89 in 6.2 mi SSE 2.3 mph - N/A   Overcast
3:30 AM 62.6 °F 57.2 °F 82% 29.86 in 6.2 mi SSE 2.3 mph - N/A   Scattered Clouds
4:00 AM 62.6 °F 59.0 °F 88% 29.86 in 6.2 mi NNE 2.3 mph - N/A   Mostly Cloudy
4:30 AM 62.6 °F 59.0 °F 88% 29.83 in 6.2 mi ENE 2.3 mph - N/A   Partly Cloudy
5:00 AM 62.6 °F 59.0 °F 88% 29.83 in 6.2 mi Calm Calm - N/A   Unknown
5:30 AM 62.6 °F 59.0 °F 88% 29.86 in 6.2 mi Calm Calm - N/A   Unknown
6:00 AM 62.6 °F 59.0 °F 88% 29.86 in 6.2 mi Calm Calm - N/A   Partly Cloudy
6:30 AM 62.6 °F 59.0 °F 88% 29.86 in 6.2 mi Calm Calm - N/A   Unknown
7:00 AM 62.6 °F 59.0 °F 88% 29.86 in 6.2 mi ENE 2.3 mph - N/A Rain Light Rain Showers
7:30 AM 62.6 °F 59.0 °F 88% 29.86 in 6.2 mi NE 2.3 mph - N/A Rain Light Rain Showers
8:00 AM 62.6 °F 60.8 °F 94% 29.86 in 6.2 mi NNE 2.3 mph - N/A   Light Drizzle
8:30 AM 62.6 °F 60.8 °F 94% 29.86 in 6.2 mi ENE 2.3 mph - N/A   Unknown
9:00 AM 64.4 °F 62.6 °F 94% 29.83 in 6.2 mi ESE 3.5 mph - N/A   Unknown
9:30 AM 64.4 °F 60.8 °F 88% 29.86 in 6.2 mi North 1.2 mph - N/A   Unknown
10:00 AM 66.2 °F 62.6 °F 88% 29.83 in 6.2 mi SE 1.2 mph - N/A Rain Light Rain
10:30 AM 66.2 °F 62.6 °F 88% 29.83 in 6.2 mi ENE 8.1 mph - N/A Rain Light Rain
11:00 AM 66.2 °F 64.4 °F 94% 29.80 in 6.2 mi ENE 5.8 mph - N/A Rain Light Rain
11:30 AM 66.2 °F 62.6 °F 88% 29.80 in 6.2 mi ENE 8.1 mph - N/A Rain Light Rain
12:00 PM 66.2 °F 62.6 °F 88% 29.77 in 6.2 mi East 10.4 mph - N/A Rain Light Rain
12:30 PM 68.0 °F 62.6 °F 83% 29.80 in 6.2 mi ENE 9.2 mph - N/A Rain Light Rain
1:00 PM 66.2 °F 62.6 °F 88% 29.77 in 6.2 mi East 9.2 mph - N/A Rain Light Rain
1:30 PM 68.0 °F 62.6 °F 83% 29.77 in 6.2 mi East 11.5 mph - N/A Rain Light Rain
2:00 PM 68.0 °F 62.6 °F 83% 29.74 in 6.2 mi ENE 16.1 mph - N/A Rain Light Rain Showers
2:30 PM 68.0 °F 60.8 °F 78% 29.71 in 6.2 mi ENE 17.3 mph - N/A   Mostly Cloudy
3:00 PM 68.0 °F 59.0 °F 73% 29.71 in 6.2 mi East 17.3 mph - N/A Rain Light Rain Showers
3:30 PM 69.8 °F 59.0 °F 68% 29.68 in 6.2 mi ENE 20.7 mph 32.2 mph N/A   Mostly Cloudy
4:00 PM 71.6 °F 57.2 °F 60% 29.65 in 6.2 mi ENE 21.9 mph - N/A   Mostly Cloudy
4:30 PM 69.8 °F 55.4 °F 60% 29.62 in 6.2 mi ENE 24.2 mph 36.8 mph N/A   Mostly Cloudy
5:00 PM 69.8 °F 57.2 °F 64% 29.62 in 6.2 mi ENE 24.2 mph - N/A   Mostly Cloudy
5:30 PM 69.8 °F 57.2 °F 64% 29.59 in 6.2 mi ENE 21.9 mph - N/A Rain Light Rain Showers
6:00 PM 68.0 °F 57.2 °F 68% 29.59 in 6.2 mi ENE 21.9 mph 34.5 mph N/A Rain Light Rain Showers
6:30 PM 66.2 °F 59.0 °F 78% 29.56 in 6.2 mi East 15.0 mph - N/A   Mostly Cloudy
7:00 PM 66.2 °F 60.8 °F 83% 29.56 in 6.2 mi East 16.1 mph - N/A Rain Light Rain Showers
7:30 PM 66.2 °F 60.8 °F 83% 29.53 in 6.2 mi East 15.0 mph - N/A   Mostly Cloudy
8:00 PM 66.2 °F 60.8 °F 83% 29.53 in 6.2 mi East 13.8 mph - N/A   Overcast
8:30 PM 66.2 °F 59.0 °F 78% 29.50 in 6.2 mi East 16.1 mph - N/A   Overcast
9:00 PM 66.2 °F 59.0 °F 78% 29.50 in 6.2 mi East 11.5 mph - N/A   Mostly Cloudy
9:30 PM 66.2 °F 59.0 °F 78% 29.47 in 6.2 mi East 9.2 mph - N/A   Overcast
10:00 PM 68.0 °F 60.8 °F 78% 29.47 in 6.2 mi East 13.8 mph - N/A Rain Light Rain Showers
10:30 PM 68.0 °F 60.8 °F 78% 29.47 in 6.2 mi East 15.0 mph - N/A   Mostly Cloudy
11:00 PM 68.0 °F 60.8 °F 78% 29.44 in 6.2 mi East 13.8 mph - N/A   Overcast
11:30 PM 68.0 °F 62.6 °F 83% 29.42 in 6.2 mi East 16.1 mph - N/A Rain Light Rain Showers